Flag for U.S.A. Weather past 2 weeks in Dover, Delaware, U.S.A.

Now
59 °F

Clear.


Feels Like: 57 °F
Forecast: 45 / 67 °F
Wind: 12 mph from West

Location: Dover Air Force Base

Current Time: Oct 24, 2014 at 9:28:32 PM

Latest Report: Oct 24, 2014 at 8:58 PM


Visibility: 10 mi

Pressure: 29.87 "Hg

Humidity: 51%

Dew point: 41 °F

Location of DoverLocation

Historic Weather in Dover — Graph

°F

Dover temperature yesterday

Maximum temperature yesterday: 59 °F (at 2:58 PM)
Minimum temperature yesterday: 51 °F (at 1:58 AM)
Average temperature yesterday: 54 °F

Past Weeks' High & Low Weather Summary

 TemperatureHumidityPressure
High78 °F (Oct 14, 1:58 PM)100% (Oct 11, 12:58 AM)30.31 "Hg (Oct 11, 12:58 AM)
Low38 °F (Oct 20, 7:58 AM)37% (Oct 19, 3:58 PM)29.60 "Hg (Oct 18, 7:03 AM)
Average59 °F82%29.94 "Hg
* Reported Oct 9 7:58 PM — Oct 24 7:58 PM, Dover, Weather by CustomWeather, © 2014

Note: Actual official high and low records may vary slightly from our data, if they occured in-between our weather recording intervals... More about our weather records

Advertising

Dover weather history for previous 24 hours

 ConditionsComfort  
Time TempWeatherWind HumidityBarometerVisibility
7:58 PM
Oct 24
59 °FClear.7 mph56%29.87 "Hg10 mi
6:58 PM61 °FSunny.5 mph54%29.86 "Hg10 mi
5:58 PM65 °FSunny.9 mph47%29.84 "Hg10 mi
4:58 PM67 °FSunny.13 mph47%29.83 "Hg10 mi
3:58 PM65 °FSunny.14 mph48%29.83 "Hg10 mi
2:58 PM67 °FSunny.12 mph49%29.83 "Hg10 mi
1:58 PM66 °FSunny.18 mph49%29.83 "Hg10 mi
12:58 PM65 °FSunny.16 mph51%29.85 "Hg10 mi
11:58 AM64 °FSunny.21 mph54%29.88 "Hg10 mi
10:58 AM61 °FPassing clouds.18 mph59%29.88 "Hg10 mi
9:58 AM59 °FScattered clouds.17 mph64%29.88 "Hg10 mi
8:58 AM56 °FOvercast.10 mph70%29.88 "Hg10 mi
7:58 AM54 °FOvercast.7 mph72%29.87 "Hg10 mi
6:58 AM54 °FOvercast.8 mph71%29.85 "Hg10 mi
5:58 AM53 °FOvercast.6 mph76%29.86 "Hg10 mi
4:58 AM53 °FPassing clouds.7 mph74%29.85 "Hg10 mi
3:58 AM56 °FOvercast.9 mph65%29.83 "Hg10 mi
2:58 AM56 °FOvercast.10 mph67%29.83 "Hg10 mi
1:58 AM56 °FOvercast.12 mph67%29.82 "Hg10 mi
12:58 AM55 °FPassing clouds.12 mph69%29.82 "Hg10 mi
11:58 PM
Oct 23
54 °FPassing clouds.9 mph74%29.83 "Hg10 mi
10:58 PM54 °FPassing clouds.13 mph76%29.84 "Hg10 mi
9:58 PM54 °FPassing clouds.10 mph75%29.85 "Hg10 mi
Weather by CustomWeather, © 2014

See weather overviewHow to use our weather pages